Sauk Centre, MN

5:00 AM CST on December 16, 2019 (GMT -0600)
Sauk Centre

Weather History for KD39 - September, 2019

Change the Weather History Date:

Saturday, September 14, 2019

  Actual Average (KGHW) Record (KGHW)
Temperature  
Mean Temperature 58 °F -  
Max Temperature 73 °F 69 °F 89 °F (1969)
Min Temperature 44 °F 46 °F 27 °F (1956)
Degree Days  
Heating Degree Days 6    
Growing Degree Days 8 (Base 50)    
Moisture  
Dew Point 54 °F    
Average Humidity 88    
Maximum Humidity 100    
Minimum Humidity 65    
Precipitation  
Precipitation 0.00 in - - ()
Sea Level Pressure  
Sea Level Pressure 30.01 in    
Wind  
Wind Speed 4 mph ()    
Max Wind Speed 13 mph    
Max Gust Speed 20 mph    
Visibility 9.2 miles    
Events Fog    
Averages and records for this station are not official NWS values.
T = Trace of Precipitation, MM = Missing Value Source: Averaged Metar Reports

Daily Weather History Graph

Daily Weather History Graph

Search for Another Location

Airport or City:

Astronomy

Sep. 14, 2019 Rise Set
Actual Time 6:56 AM CDT 7:33 PM CDT
Civil Twilight 6:26 AM CDT 8:03 PM CDT
Nautical Twilight 5:51 AM CDT 8:38 PM CDT
Astronomical Twilight 5:14 AM CDT 9:15 PM CDT
Moon 8:14 PM CDT (9/14) 7:08 AM CDT (9/14)
Length of Visible Light 13h 36m
Length of Day
12h 36m
Full, 100% of the Moon is Illuminated
Sep 14
Full
Sep 21
Last Quarter
Sep 28
New
Oct 5
First Quarter
Oct 13
Full

Hourly Weather History & Observations

Time (CDT) Temp. Windchill Dew Point Humidity Pressure Visibility Wind Dir Wind Speed Gust Speed Precip Events Conditions
12:15 AM 47.1 °F - 45.7 °F 95% 30.07 in 10.0 mi Calm Calm - N/A   Clear
12:38 AM 47.1 °F - 45.7 °F 95% 30.06 in 10.0 mi Calm Calm - N/A   Clear
12:56 AM 47.1 °F - 46.2 °F 97% 30.06 in 10.0 mi Calm Calm - N/A   Clear
1:16 AM 46.4 °F - 45.9 °F 98% 30.06 in 10.0 mi Calm Calm - N/A   Clear
1:35 AM 46.0 °F - 45.5 °F 98% 30.07 in 10.0 mi Calm Calm - N/A   Clear
1:36 AM 46.2 °F - 45.5 °F 97% 30.07 in 10.0 mi Calm Calm - N/A   Clear
1:55 AM 45.3 °F 44.0 °F 44.8 °F 98% 30.07 in 10.0 mi SSW 3.5 mph - N/A   Clear
2:00 AM 44.8 °F - 44.6 °F 99% 30.07 in 10.0 mi Calm Calm - N/A   Clear
2:17 AM 45.7 °F - 45.5 °F 99% 30.07 in 10.0 mi Calm Calm - N/A   Clear
2:35 AM 46.0 °F 44.8 °F 45.9 °F 99% 30.07 in 7.0 mi South 3.5 mph - N/A   Clear
2:55 AM 45.7 °F - 45.5 °F 99% 30.07 in 1.2 mi Calm Calm - N/A   Mist
2:56 AM 45.7 °F - 45.5 °F 99% 30.07 in 1.5 mi Calm Calm - N/A   Mist
3:15 AM 45.5 °F - 45.5 °F 100% 30.06 in 7.0 mi Calm Calm - N/A   Clear
3:16 AM 45.5 °F - 45.5 °F 100% 30.07 in 7.0 mi Calm Calm - N/A   Clear
3:35 AM 45.1 °F - 45.0 °F 99% 30.07 in 1.2 mi Calm Calm - N/A   Mist
3:57 AM 45.5 °F - 45.5 °F 100% 30.07 in 5.0 mi Calm Calm - N/A   Clear
4:17 AM 45.7 °F 43.4 °F 45.5 °F 99% 30.07 in 10.0 mi South 4.6 mph - N/A   Clear
4:38 AM 45.9 °F 42.9 °F 45.7 °F 99% 30.08 in 10.0 mi SSW 5.8 mph - N/A   Clear
4:55 AM 46.4 °F 45.2 °F 46.4 °F 100% 30.08 in 10.0 mi South 3.5 mph - N/A   Clear
5:15 AM 46.4 °F 45.2 °F 46.0 °F 99% 30.07 in 10.0 mi SE 3.5 mph - N/A   Clear
5:35 AM 44.8 °F 42.4 °F 44.6 °F 99% 30.07 in 10.0 mi SSE 4.6 mph - N/A   Clear
5:39 AM 44.8 °F 43.3 °F 44.6 °F 99% 30.07 in 10.0 mi South 3.5 mph - N/A   Clear
5:58 AM 44.4 °F - 44.2 °F 99% 30.07 in 10.0 mi Calm Calm - N/A   Clear
6:15 AM 45.1 °F 43.7 °F 45.0 °F 99% 30.07 in 10.0 mi ESE 3.5 mph - N/A   Clear
6:36 AM 45.5 °F 44.2 °F 45.5 °F 100% 30.07 in 10.0 mi ESE 3.5 mph - N/A   Clear
6:55 AM 45.0 °F - 44.8 °F 99% 30.07 in 10.0 mi Calm Calm - N/A   Mostly Cloudy
6:56 AM 45.0 °F - 44.8 °F 99% 30.07 in 10.0 mi Calm Calm - N/A   Mostly Cloudy
7:15 AM 45.5 °F 44.2 °F 45.5 °F 100% 30.08 in 10.0 mi ESE 3.5 mph - N/A   Overcast
7:16 AM 45.5 °F 44.2 °F 45.5 °F 100% 30.08 in 10.0 mi ESE 3.5 mph - N/A   Overcast
7:39 AM 46.8 °F - 46.6 °F 99% 30.06 in 10.0 mi East 5.8 mph - N/A   Mostly Cloudy
7:56 AM 47.5 °F - 47.3 °F 99% 30.06 in 10.0 mi East 5.8 mph - N/A   Mostly Cloudy
8:16 AM 48.2 °F - 47.8 °F 99% 30.06 in 10.0 mi Calm Calm - N/A   Mostly Cloudy
8:35 AM 50.0 °F - 49.6 °F 99% 30.06 in 10.0 mi ESE 3.5 mph - N/A   Scattered Clouds
8:36 AM 50.0 °F - 49.6 °F 99% 30.05 in 10.0 mi ESE 4.6 mph - N/A   Scattered Clouds
8:55 AM 51.6 °F - 51.1 °F 98% 30.06 in 10.0 mi ESE 3.5 mph - N/A   Clear
8:59 AM 51.8 °F - 50.9 °F 97% 30.06 in 10.0 mi East 3.5 mph - N/A   Clear
9:17 AM 53.6 °F - 52.0 °F 94% 30.06 in 10.0 mi ESE 4.6 mph - N/A   Clear
9:35 AM 54.7 °F - 52.7 °F 93% 30.05 in 10.0 mi ESE 5.8 mph - N/A   Clear
9:56 AM 56.5 °F - 53.6 °F 90% 30.05 in 10.0 mi ESE 6.9 mph - N/A   Clear
10:15 AM 58.3 °F - 54.0 °F 86% 30.06 in 10.0 mi ESE 9.2 mph - N/A   Clear
10:16 AM 58.3 °F - 54.1 °F 86% 30.06 in 10.0 mi ESE 9.2 mph - N/A   Clear
10:39 AM 60.6 °F - 54.7 °F 81% 30.05 in 10.0 mi ESE 9.2 mph - N/A   Clear
10:56 AM 61.5 °F - 55.0 °F 79% 30.05 in 10.0 mi ESE 12.7 mph - N/A   Clear
11:15 AM 62.2 °F - 55.9 °F 80% 30.04 in 10.0 mi SE 6.9 mph - N/A   Clear
11:16 AM 62.4 °F - 56.1 °F 80% 30.04 in 10.0 mi ESE 8.1 mph - N/A   Clear
11:35 AM 62.6 °F - 55.6 °F 78% 30.03 in 10.0 mi ESE 9.2 mph - N/A   Clear
11:55 AM 65.3 °F - 56.3 °F 73% 30.02 in 10.0 mi East 11.5 mph - N/A   Clear
11:59 AM 65.3 °F - 56.3 °F 73% 30.02 in 10.0 mi East 9.2 mph - N/A   Clear
12:18 PM 67.1 °F - 56.3 °F 68% 30.00 in 10.0 mi ESE 12.7 mph 16.1 mph N/A   Clear
12:35 PM 68.0 °F - 55.9 °F 65% 30.00 in 10.0 mi ESE 12.7 mph 17.3 mph N/A   Clear
12:55 PM 67.5 °F - 55.9 °F 66% 30.00 in 10.0 mi SE 12.7 mph - N/A   Clear
1:15 PM 66.6 °F - 56.7 °F 70% 29.99 in 10.0 mi SE 9.2 mph 16.1 mph N/A   Mostly Cloudy
1:16 PM 66.6 °F - 56.8 °F 71% 29.99 in 10.0 mi SE 10.4 mph - N/A   Mostly Cloudy
1:40 PM 67.8 °F - 57.2 °F 69% 29.98 in 10.0 mi SE 11.5 mph - N/A   Overcast
1:57 PM 69.3 °F - 58.5 °F 68% 29.98 in 10.0 mi SE 11.5 mph - N/A   Mostly Cloudy
2:15 PM 69.4 °F - 58.5 °F 68% 29.97 in 10.0 mi ESE 10.4 mph - N/A   Scattered Clouds
2:35 PM 70.7 °F - 60.4 °F 70% 29.97 in 10.0 mi SSE 10.4 mph - N/A   Scattered Clouds
2:36 PM 70.9 °F - 60.4 °F 69% 29.97 in 10.0 mi SSE 11.5 mph - N/A   Scattered Clouds
2:55 PM 70.9 °F - 60.6 °F 70% 29.96 in 10.0 mi SSE 9.2 mph 19.6 mph N/A   Scattered Clouds
2:56 PM 71.1 °F - 60.8 °F 70% 29.96 in 10.0 mi SE 9.2 mph 19.6 mph N/A   Scattered Clouds
3:18 PM 69.4 °F - 60.8 °F 74% 29.96 in 10.0 mi SSE 8.1 mph - N/A   Mostly Cloudy
3:36 PM 70.0 °F - 61.5 °F 74% 29.95 in 10.0 mi SE 6.9 mph - N/A   Overcast
3:55 PM 73.2 °F - 63.0 °F 70% 29.94 in 10.0 mi ESE 5.8 mph - N/A   Overcast
4:15 PM 71.6 °F - 62.4 °F 73% 29.94 in 10.0 mi SE 8.1 mph - N/A   Mostly Cloudy
4:16 PM 71.8 °F - 62.4 °F 72% 29.94 in 10.0 mi SE 6.9 mph - N/A   Mostly Cloudy
4:35 PM 71.8 °F - 62.2 °F 72% 29.94 in 10.0 mi East 6.9 mph - N/A   Mostly Cloudy
4:40 PM 70.9 °F - 62.1 °F 74% 29.94 in 10.0 mi ESE 6.9 mph - N/A   Mostly Cloudy
4:57 PM 70.3 °F - 61.9 °F 74% 29.94 in 10.0 mi ENE 6.9 mph - N/A   Overcast
5:15 PM 69.4 °F - 61.7 °F 76% 29.95 in 10.0 mi ENE 8.1 mph - N/A   Overcast
5:35 PM 68.2 °F - 61.7 °F 80% 29.94 in 10.0 mi ENE 6.9 mph - N/A   Overcast
5:36 PM 68.0 °F - 61.7 °F 80% 29.94 in 10.0 mi East 6.9 mph - N/A   Overcast
5:55 PM 68.0 °F - 61.5 °F 80% 29.94 in 10.0 mi East 10.4 mph - N/A   Mostly Cloudy
5:56 PM 68.0 °F - 61.3 °F 79% 29.94 in 10.0 mi East 10.4 mph - N/A   Mostly Cloudy
6:18 PM 67.6 °F - 61.9 °F 82% 29.94 in 10.0 mi East 8.1 mph - N/A   Clear
6:36 PM 66.9 °F - 61.3 °F 82% 29.94 in 10.0 mi ESE 8.1 mph - N/A   Clear
6:55 PM 67.1 °F - 61.0 °F 81% 29.94 in 10.0 mi ESE 6.9 mph - N/A   Clear
6:56 PM 67.1 °F - 61.0 °F 81% 29.94 in 10.0 mi ESE 6.9 mph - N/A   Clear
7:15 PM 65.5 °F - 60.8 °F 85% 29.93 in 10.0 mi ESE 6.9 mph - N/A   Clear
7:16 PM 65.5 °F - 60.8 °F 85% 29.93 in 10.0 mi ESE 6.9 mph - N/A   Clear
7:35 PM 64.0 °F - 60.8 °F 89% 29.94 in 10.0 mi East 4.6 mph - N/A   Clear
7:40 PM 64.4 °F - 60.8 °F 88% 29.94 in 10.0 mi East 4.6 mph - N/A   Clear
7:57 PM 63.9 °F - 60.4 °F 89% 29.94 in 10.0 mi East 3.5 mph - N/A   Clear
8:15 PM 62.8 °F - 60.1 °F 91% 29.94 in 10.0 mi Calm Calm - N/A   Clear
8:35 PM 62.8 °F - 60.1 °F 91% 29.94 in 10.0 mi Calm Calm - N/A   Clear
8:36 PM 62.6 °F - 60.1 °F 91% 29.94 in 10.0 mi Calm Calm - N/A   Clear
8:56 PM 62.1 °F - 60.4 °F 94% 29.94 in 10.0 mi Calm Calm - N/A   Clear
9:15 PM 61.0 °F - 59.9 °F 96% 29.94 in 10.0 mi East 3.5 mph - N/A   Clear
9:37 PM 60.8 °F - 59.9 °F 97% 29.95 in 10.0 mi East 3.5 mph - N/A   Clear
9:56 PM 59.4 °F - 58.5 °F 97% 29.95 in 10.0 mi Calm Calm - N/A   Clear
10:16 PM 58.5 °F - 57.7 °F 97% 29.95 in 7.0 mi Calm Calm - N/A   Clear
10:35 PM 58.6 °F - 58.3 °F 99% 29.95 in 7.0 mi Calm Calm - N/A   Clear
10:36 PM 58.6 °F - 58.3 °F 99% 29.95 in 7.0 mi Calm Calm - N/A   Clear
10:55 PM 57.2 °F - 57.0 °F 99% 29.95 in 0.5 mi Calm Calm - N/A Fog Fog
11:18 PM 57.4 °F - 57.2 °F 99% 29.95 in 3.0 mi Calm Calm - N/A   Scattered Clouds
11:36 PM 56.3 °F - 56.1 °F 99% 29.95 in 5.0 mi Calm Calm - N/A   Clear
11:56 PM 56.3 °F - 56.3 °F 100% 29.95 in 0.8 mi Calm Calm - N/A   Scattered Clouds